DW5479 Weather Reports


time (UTC)temp
F
wind
direction
speed
knots
gust
knots
rain 1hr
in
rain 24hr
in
rain mn
in
humidity
%
barometer
mb
20260901101529 75 133 0.0 0.9 0.00 0.00 0.00 88 1014.0
20260901100052 74 127 0.0 0.0 0.00 0.00 0.00 88 1013.9
20260901094605 75 137 0.0 0.0 0.00 0.00 0.00 88 1013.8
20260901093017 74 166 0.0 0.0 0.00 0.00 0.00 88 1013.8
20260901091547 75 133 0.0 0.0 0.00 0.00 0.00 87 1013.9
20260901090005 75 171 0.0 0.0 0.00 0.00 0.00 87 1014.0
20260901084522 75 149 0.0 0.0 0.00 0.00 0.00 86 1014.0
20260901083039 76 138 0.0 0.0 0.00 0.00 0.00 86 1014.0
20260901081554 77 136 0.0 0.0 0.00 0.00 0.00 85 1014.0
20260901080011 77 134 0.0 0.9 0.00 0.00 0.00 85 1014.1
20260901074520 78 144 0.0 0.9 0.00 0.00 0.00 85 1013.9
20260901073038 78 108 0.0 1.7 0.00 0.00 0.00 84 1013.9
20260901071603 78 148 0.0 2.6 0.00 0.00 0.00 84 1013.9
20260901070010 79 155 0.0 0.9 0.00 0.00 0.00 83 1014.0
20260901064545 79 138 0.9 1.7 0.00 0.00 0.00 82 1014.0
20260901063005 79 94 0.0 1.7 0.00 0.00 0.00 81 1014.0
20260901061524 80 179 1.7 3.5 0.00 0.00 0.00 81 1013.9
20260901060043 80 179 1.7 6.1 0.00 0.00 0.00 80 1013.7
20260901054600 81 138 2.6 9.6 0.00 0.00 0.00 79 1013.5
20260901053015 81 127 5.2 9.6 0.00 0.00 0.00 77 1013.3
20260901051534 81 160 4.3 7.8 0.00 0.00 0.00 75 1013.4
20260901050050 82 167 4.3 10.4 0.00 0.00 0.00 73 1013.2
20260901044507 82 154 5.2 8.7 0.00 0.00 0.00 72 1013.1
20260901043023 83 141 3.5 7.8 0.00 0.00 0.00 71 1013.0
20260901041557 83 149 7.0 13.0 0.00 0.00 0.00 70 1013.1
20260901040027 84 141 6.1 10.4 0.00 0.00 0.00 68 1013.0
20260901034548 84 150 5.2 10.4 0.00 0.00 0.00 67 1013.0
20260901033030 85 146 6.1 10.4 0.00 0.00 0.00 65 1012.9
20260901031544 86 149 7.8 13.0 0.00 0.00 0.00 63 1012.8
20260901030052 86 141 5.2 10.4 0.00 0.00 0.00 61 1012.6
20260901024505 87 160 4.3 10.4 0.00 0.00 0.00 60 1012.2
20260901023040 88 158 6.1 10.4 0.00 0.00 0.00 58 1012.1
20260901021600 88 126 7.0 13.9 0.00 0.00 0.00 57 1011.8
20260901020016 89 152 4.3 12.2 0.00 0.00 0.00 54 1011.6
20260901014548 90 165 6.1 12.2 0.00 0.00 0.00 53 1011.4
20260901013028 91 146 5.2 10.4 0.00 0.00 0.00 52 1011.1
20260901011538 92 133 4.3 9.6 0.00 0.00 0.00 50 1011.0
20260901010055 92 146 3.5 9.6 0.00 0.00 0.00 47 1010.7
20260901004504 94 165 2.6 7.8 0.00 0.00 0.00 44 1010.6
20260901003027 95 151 2.6 7.0 0.00 0.00 0.00 43 1010.5
20260901001542 96 139 4.3 7.8 0.00 0.00 0.00 40 1010.3
20260901000057 96 179 2.6 7.8 0.00 0.00 0.00 40 1010.3
20260831234510 96 152 5.2 9.6 0.00 0.00 0.00 40 1010.2
20260831233033 98 143 3.5 7.8 0.00 0.00 0.00 38 1010.2
20260831231615 98 158 5.2 12.2 0.00 0.00 0.00 38 1010.1
20260831230028 99 132 3.5 7.8 0.00 0.00 0.00 36 1010.1
20260831224543 99 143 2.6 5.2 0.00 0.00 0.00 35 1010.2
20260831223110 99 131 2.6 8.7 0.00 0.00 0.00 36 1010.3
20260831221521 99 144 4.3 10.4 0.00 0.00 0.00 36 1010.4
20260831220032 98 115 0.9 6.1 0.00 0.00 0.00 37 1010.5
20260831214550 100 148 2.6 7.0 0.00 0.00 0.00 35 1010.8
20260831213006 99 159 2.6 9.6 0.00 0.00 0.00 35 1011.1
20260831211526 99 165 3.5 7.8 0.00 0.00 0.00 38 1011.2
20260831210040 99 141 1.7 8.7 0.00 0.00 0.00 39 1011.5
20260831204502 99 153 3.5 9.6 0.00 0.00 0.00 39 1011.7
20260831203033 98 148 2.6 9.6 0.00 0.00 0.00 40 1012.0
20260831201555 98 146 4.3 10.4 0.00 0.00 0.00 39 1012.3
20260831200107 98 125 2.6 7.0 0.00 0.00 0.00 41 1012.6
20260831194526 96 149 3.5 13.0 0.00 0.00 0.00 44 1012.9
20260831193034 96 134 4.3 12.2 0.00 0.00 0.00 43 1013.1
20260831191556 96 155 2.6 7.8 0.00 0.00 0.00 45 1013.3
20260831190007 95 166 1.7 10.4 0.00 0.00 0.00 45 1013.5
20260831184537 94 136 1.7 5.2 0.00 0.00 0.00 48 1013.8
20260831183101 95 165 4.3 8.7 0.00 0.00 0.00 47 1013.9
20260831181521 95 143 1.7 7.0 0.00 0.00 0.00 47 1014.0
20260831180044 94 127 2.6 8.7 0.00 0.00 0.00 48 1014.1
20260831174558 93 136 2.6 8.7 0.00 0.00 0.00 48 1014.3
20260831173030 92 134 4.3 9.6 0.00 0.00 0.00 53 1014.5
20260831171546 92 134 3.5 7.0 0.00 0.00 0.00 53 1014.6
20260831170022 92 139 2.6 6.1 0.00 0.00 0.00 54 1014.7
20260831164532 91 159 3.5 8.7 0.00 0.00 0.00 56 1014.7
20260831163052 90 153 1.7 7.8 0.00 0.00 0.00 60 1014.8
20260831161505 89 150 3.5 8.7 0.00 0.00 0.00 62 1014.7
20260831160021 88 162 2.6 7.8 0.00 0.00 0.00 67 1014.9
20260831154554 88 146 4.3 6.1 0.00 0.00 0.00 66 1014.9
20260831153010 87 159 3.5 8.7 0.00 0.00 0.00 68 1014.9
20260831151526 86 151 2.6 7.8 0.00 0.00 0.00 69 1014.8
20260831150041 85 136 0.9 6.1 0.00 0.00 0.00 74 1014.7
20260831144642 84 171 1.7 6.1 0.00 0.00 0.00 77 1014.6
20260831143011 83 155 2.6 5.2 0.00 0.00 0.00 81 1014.6
20260831141531 81 142 1.7 4.3 0.00 0.00 0.00 84 1014.7
20260831140045 80 136 0.9 3.5 0.00 0.00 0.00 86 1014.6
20260831134605 78 138 0.9 2.6 0.00 0.00 0.00 88 1014.4
20260831133015 76 136 0.9 3.5 0.00 0.00 0.00 89 1014.4
20260831131601 75 137 0.9 2.6 0.00 0.00 0.00 89 1014.3
20260831130015 75 139 0.9 2.6 0.00 0.00 0.00 89 1014.2
20260831124537 74 137 0.9 3.5 0.00 0.00 0.00 89 1014.1
20260831123055 74 146 0.0 2.6 0.00 0.00 0.00 89 1014.1
20260831121508 74 153 0.0 1.7 0.00 0.00 0.00 90 1013.9
20260831120027 73 155 0.0 0.9 0.00 0.00 0.00 89 1013.8
20260831114550 73 146 0.0 0.0 0.00 0.00 0.00 89 1013.7
20260831113021 73 173 0.0 0.0 0.00 0.00 0.00 89 1013.5
20260831111539 73 161 0.0 0.0 0.00 0.00 0.00 89 1013.6
20260831110057 73 158 0.0 0.0 0.00 0.00 0.00 89 1013.5
20260831104531 73 167 0.0 0.0 0.00 0.00 0.00 89 1013.4
20260831103050 73 167 0.0 0.0 0.00 0.00 0.00 89 1013.5